Location: Castle Hill Houses
(40.8186°N, 73.8497°W)
Time: 11:13:01
(UTC+00:00)

Cosmos 2228 - Pass Details

Date: 26 January 2020
Orbit: 588 x 619 km, 82.5° (Epoch: 18 February)

Event Time Altitude Azimuth Distance (km) Brightness Sun altitude
Exits shadow 10:22:18 39° 330° (NNW) 936 3.6 -20.6°
Drops below altitude 10° 10:25:21 10° 358° (N) 1,985 5.5 -20.0°
Sets 10:27:38 0° 3° (N) 2,890 6.4 -19.6°
